Showing default

QIANFAN-61, 62791

Orbit data source: Space-Track

QIANFAN-61, 62791 is a Chinese payload satellite in LEO that was launched on Thu, 23 Jan 2025 UTC via a CHANG ZHENG 6A launch vehicle from the Taiyaun Space Center, China (TSC). Payload-class satellites include a variety of spacecraft equipped with specific instruments for various scientific and technological missions. These include communications satellites like Starlink; space stations such as the ISS; scientific satellites like the Hubble; Earth observation satellites from companies like Planet Labs, Umbra, and HawkEye 360; GPS; miniature CubeSats for education and research; and military/defense satellites.

Loading next visibility...
Identifier
62791, 2025-016G
Orbit
LEO
Last TLE update
13 hours ago
Origin
Manufacturer
SECM
Mission
Operational Commercial Communications
Bus & Motor
QIANFAN, Unknown motor
Mass
267 kg wet, ~267 kg dry
Launch date (UTC)
2025-01-23 (5 months ago)
Launch vehicle
CHANG ZHENG 6A
Launch site
Taiyaun Space Center, China (TSC)
Object type
Payload
Rocket body
Debris
Shape & HBR
Box + 1 Pan, 10 m
Radar Cross Section
13.200 m², Large (>1 m²)

Expand to show TLE details & history

TLE from 13 hours ago
0 QIANFAN-61
1 62791U 25016G   25181.87011457  .00000110  00000-0  15211-3 0  9994
2 62791  88.9910 120.1393 0017034  96.6228 263.6863 13.50949915 24982
Epoch: 2025-06-30T20:52Z
TLE epoch observation values (Epoch: 2025-06-30T20:52:57.898Z)
Latitude
-0.00001°
Longitude
-112.27566°
Altitude
1,073.135 km
Speed
7.315 km/s
True Right ascension
08h 00m 33s
True Declination
0° 00' 00"
Sunlit
Object was in daylight at epoch
Visualization orbit readout
Latitude
-15.85747°
Longitude
67.9526°
Altitude
1,077.444 km
Speed
7.311 km/s
Apparent Right ascension
17h 24m 35s
Apparent Declination
-58° 42' 09"
Sunlit
Object is in full shadow
Visualization observer readout
Local Sidereal Time
21:55:47
Azimuth
211.615° SW
Elevation
-23.437°
Doppler factor
1
Orbital elements
Apogee altitude
1,078.497 km
Perigee altitude
1,053.137 km
Semi-major axis
7,443.954 km
Eccentricity
0.0017
Inclination
88.991°
RAAN
120.1393°
Arg. of periapsis
96.6228°
True anomaly
Unknown
Mean anomaly
263.6863°
Eccentric anomaly
Unknown
Mean motion
3.37938 °/min
Orbital period
106.53 mins
BSTAR
0.00015211
Loading maneuver chart data...
Loading SW <> Apogee altitude chart data...
Loading historical data...
Loading historical data...
Loading historical data...
Loading historical data...
Loading historical data...
Loading historical data...
Loading historical data...

QIANFAN-61 Visibility forecast

Observer location: undefined°, undefined°

Span
Click to sort rows by Start time (UTC) header in descending order
Start Az.
Max El. time (UTC)
Max El. Az.
Max El.
End time (UTC)
End Az.
12 mins2025-07-01 20:05:22.137Z168.919° S2025-07-01 20:11:22.137Z80.355° E43.85°2025-07-01 20:17:22.137Z3.429° NNE
6 mins2025-07-01 21:56:22.137Z261.693° W2025-07-01 21:58:22.137Z282.565° WNW16.151°2025-07-01 22:02:22.137Z321.133° NNW
10 mins2025-07-02 07:16:22.137Z27.456° NE2025-07-02 07:20:22.137Z77.993° E29.875°2025-07-02 07:26:22.137Z146.808° SSE
10 mins2025-07-02 09:02:22.137Z338.459° N2025-07-02 09:07:22.137Z275.445° WNW30.329°2025-07-02 09:12:22.137Z219.677° SW
|